Location: Bremen
(53.0793°N, 8.8017°E)
Time: 15:16:30
(UTC+01:00)

S-56A Canister/Altair - Pass Details

Date: 04 December 2021
Orbit: 634 x 2499 km, 38.9° (Epoch: 28 January)

Event Time Altitude Azimuth Distance (km) Brightness Sun altitude
Rises 23:36:44 0° 216° (SW) 5,319 - -58.4°
Reaches altitude 10° 23:41:47 10° 202° (SSW) 3,957 - -58.6°
Maximum altitude 23:48:10 19° 162° (SSE) 2,775 - -58.8°
Drops below altitude 10° 23:53:12 10° 119° (ESE) 3,009 - -59.0°
Sets 23:56:21 0° 102° (ESE) 3,697 - -59.1°
